Regional Weather Roundup
Issued by NWS

Home | Current Version | Previous Version | Text Only | Print | Product List | Glossary Off
Versions: 1 2 3 4 5 6 7 8 9 10 11 12 13 14 15 16 17 18 19 20 21 22 23 24 25 26 27 28 29 30 31 32 33 34 35 36 37 38 39 40 41 42 43 44 45 46 47 48 49 50

000
ASUS43 KBIS 241420
RWRND

NORTH DAKOTA REGIONAL WEATHER ROUNDUP
NATIONAL WEATHER SERVICE BISMARCK ND
900 AM CDT FRI OCT 24 2014

NOTE: "FAIR" INDICATES FEW OR NO CLOUDS BELOW 12,000 FEET WITH NO
SIGNIFICANT WEATHER AND/OR OBSTRUCTIONS TO VISIBILITY.


NDZ001>003-009>011-017-241500-
NORTHWEST NORTH DAKOTA

CITY           SKY/WX    TMP DP  RH WIND       PRES   REMARKS
WILLISTON      MOCLDY    45  37  73 SW8       29.86R
MINOT          CLOUDY    54  36  50 SW9       29.79R
MINOT AFB      CLOUDY    53  38  57 W16       29.78R
$$

NDZ018>021-031>035-040>046-241500-
SOUTHWEST NORTH DAKOTA

CITY           SKY/WX    TMP DP  RH WIND       PRES   REMARKS
BISMARCK       CLOUDY    37  32  82 CALM      29.87R
DICKINSON      PTCLDY    41  33  73 W9        29.88R
GARRISON         N/A     41  37  86 S3        29.83R
HETTINGER ARPT PTCLDY    41  30  65 W7        29.93R
$$

NDZ004>008-012>016-024-026-027-054-241500-
NORTHEAST NORTH DAKOTA

CITY           SKY/WX    TMP DP  RH WIND       PRES   REMARKS
GRAND FORKS    PTCLDY    46  37  71 SW8       29.75S
GRND FRKS AFB  PTCLDY    50  39  65 W8        29.76R
DEVILS LAKE    CLEAR     50  36  57 W8        29.77S
$$

NDZ022-023-025-028>030-036>039-047>053-241500-
SOUTHEAST NORTH DAKOTA

CITY           SKY/WX    TMP DP  RH WIND       PRES   REMARKS
FARGO          PTCLDY    46  41  82 S9        29.81R
JAMESTOWN      MOCLDY    44  36  73 W3        29.82R
$$




USA.gov is the U.S. government's official web portal to all federal, state and local government web resources and services.